{"data":{"norad_id":67473,"intl_designator":"2026-008AE","name":"STARLINK-36408","alt_names":[],"object_type":"PAYLOAD","status":"ACTIVE","operator":null,"country":"US","launch_date":"2026-01-14","launch_site_code":"AFETR","launch_vehicle":null,"mission":null,"orbit_class":"UNKNOWN","rcs_meters":null,"size_class":null,"mass_kg":null,"dimensions":null,"purposes":["comms"],"wikipedia_slug":null,"has_3d_model":false,"image_url":null,"decayed_at":null,"tle_current":{"epoch":"2026-05-25T00:18:49.261824Z","epoch_age_seconds":73927,"freshness":"FRESH","line1":"1 67473U 26008AE  26145.01307016  .00018587  00000+0  68296-3 0  9991","line2":"2 67473  43.0032 134.2829 0002173 261.7128  98.3477 15.27593305 21247","mean_motion":15.27593305,"eccentricity":0.0002173,"inclination_deg":43.0032,"raan_deg":134.2829,"arg_perigee_deg":261.7128,"mean_anomaly_deg":98.3477,"bstar":0.00068296,"rev_number":2124,"period_min":94.265927671109,"perigee_km":481.51832929086,"apogee_km":484.50018345388,"semimajor_km":6861.1462563724,"source":"CELESTRAK","updated_at":"2026-05-25T13:38:21.565716Z"}}}